Saint Bonnet de Bellac- Haute Vienne - France
Donnes mto: jeudi, 07/06/2012
Date Horaire Temp. E. Hum. E. P.atmo. Pluie Vent Direction Direction Ensoleilleme Solaire P. de rose Temp au vent Rafales
07/06/2012 00:00 15,4 C 82 % 1008,1 hPa 0,0 mm 0,0 km/h (0 Bft) S 180 0 min 0 W/m 12,3 C 15,4 C 0,0 km/h (0 Bft)
07/06/2012 00:10 15,3 C 82 % 1008,1 hPa 0,0 mm 0,0 km/h (0 Bft) S 180 0 min 0 W/m 12,2 C 15,3 C 0,0 km/h (0 Bft)
07/06/2012 00:20 15,3 C 83 % 1008,0 hPa 0,0 mm 0,0 km/h (0 Bft) S 180 0 min 0 W/m 12,4 C 15,3 C 0,0 km/h (0 Bft)
07/06/2012 00:30 15,3 C 84 % 1007,9 hPa 0,0 mm 0,0 km/h (0 Bft) S 180 0 min 0 W/m 12,6 C 15,3 C 0,0 km/h (0 Bft)
07/06/2012 00:40 15,2 C 84 % 1007,7 hPa 0,0 mm 0,0 km/h (0 Bft) S 180 0 min 0 W/m 12,5 C 15,2 C 0,0 km/h (0 Bft)
07/06/2012 00:50 15,1 C 84 % 1007,9 hPa 0,0 mm 0,0 km/h (0 Bft) S 180 0 min 0 W/m 12,4 C 15,1 C 0,0 km/h (0 Bft)
07/06/2012 01:00 15,0 C 84 % 1007,8 hPa 0,0 mm 0,0 km/h (0 Bft) S 180 0 min 0 W/m 12,3 C 15,0 C 0,0 km/h (0 Bft)
07/06/2012 01:10 14,8 C 84 % 1007,6 hPa 0,0 mm 0,0 km/h (0 Bft) S 180 0 min 0 W/m 12,1 C 14,8 C 0,0 km/h (0 Bft)
07/06/2012 01:20 14,6 C 84 % 1007,6 hPa 0,0 mm 0,0 km/h (0 Bft) S 180 0 min 0 W/m 11,9 C 14,6 C 0,0 km/h (0 Bft)
07/06/2012 01:30 14,5 C 85 % 1007,5 hPa 0,0 mm 0,0 km/h (0 Bft) S 180 0 min 0 W/m 12,0 C 14,5 C 0,0 km/h (0 Bft)
07/06/2012 01:40 14,5 C 86 % 1007,4 hPa 0,0 mm 0,0 km/h (0 Bft) E 90 0 min 0 W/m 12,2 C 14,5 C 0,0 km/h (0 Bft)
07/06/2012 01:50 14,6 C 86 % 1007,2 hPa 0,0 mm 0,0 km/h (0 Bft) E 90 0 min 0 W/m 12,3 C 14,6 C 1,4 km/h (1 Bft)
07/06/2012 02:00 14,8 C 87 % 1007,0 hPa 0,0 mm 1,1 km/h (1 Bft) E-SE 112 0 min 0 W/m 12,7 C 14,8 C 4,0 km/h (1 Bft)
07/06/2012 02:10 14,8 C 87 % 1006,9 hPa 0,0 mm 3,6 km/h (1 Bft) E-SE 112 0 min 0 W/m 12,7 C 14,8 C 5,8 km/h (2 Bft)
07/06/2012 02:20 14,9 C 87 % 1006,7 hPa 0,0 mm 0,7 km/h (0 Bft) E-SE 112 0 min 0 W/m 12,8 C 14,9 C 4,0 km/h (1 Bft)
07/06/2012 02:30 14,9 C 87 % 1006,5 hPa 0,0 mm 1,1 km/h (1 Bft) E 90 0 min 0 W/m 12,8 C 14,9 C 1,1 km/h (1 Bft)
07/06/2012 02:40 14,9 C 87 % 1006,6 hPa 0,0 mm 0,0 km/h (0 Bft) E-SE 112 0 min 0 W/m 12,8 C 14,9 C 2,9 km/h (1 Bft)
07/06/2012 02:50 14,9 C 87 % 1006,3 hPa 0,0 mm 2,9 km/h (1 Bft) E-NE 67 0 min 0 W/m 12,8 C 14,9 C 4,3 km/h (1 Bft)
07/06/2012 03:02 14,9 C 87 % 1006,2 hPa 0,0 mm 0,0 km/h (0 Bft) SE 135 0 min 0 W/m 12,8 C 14,9 C 0,0 km/h (0 Bft)
07/06/2012 03:10 14,9 C 87 % 1006,3 hPa 0,0 mm 1,8 km/h (1 Bft) E-SE 112 0 min 0 W/m 12,8 C 14,9 C 4,0 km/h (1 Bft)
07/06/2012 03:20 14,9 C 87 % 1006,1 hPa 0,0 mm 0,7 km/h (0 Bft) E-SE 112 0 min 0 W/m 12,8 C 14,9 C 4,0 km/h (1 Bft)
07/06/2012 03:30 14,9 C 87 % 1005,7 hPa 0,0 mm 2,9 km/h (1 Bft) E-SE 112 0 min 0 W/m 12,8 C 14,9 C 5,8 km/h (2 Bft)
07/06/2012 03:40 14,9 C 87 % 1005,7 hPa 0,0 mm 1,8 km/h (1 Bft) E-SE 112 0 min 0 W/m 12,8 C 14,9 C 4,3 km/h (1 Bft)
07/06/2012 03:50 14,9 C 87 % 1005,6 hPa 0,0 mm 0,7 km/h (0 Bft) E-SE 112 0 min 0 W/m 12,8 C 14,9 C 0,7 km/h (0 Bft)
07/06/2012 04:00 14,9 C 87 % 1005,6 hPa 0,0 mm 0,0 km/h (0 Bft) E-SE 112 0 min 0 W/m 12,8 C 14,9 C 0,0 km/h (0 Bft)
07/06/2012 04:10 14,8 C 87 % 1005,3 hPa 0,0 mm 1,4 km/h (1 Bft) E-SE 112 0 min 0 W/m 12,7 C 14,8 C 4,3 km/h (1 Bft)
07/06/2012 04:20 14,6 C 87 % 1004,7 hPa 0,0 mm 1,1 km/h (1 Bft) E-SE 112 0 min 0 W/m 12,5 C 14,6 C 5,8 km/h (2 Bft)
07/06/2012 04:30 14,5 C 87 % 1004,5 hPa 0,0 mm 2,5 km/h (1 Bft) E-SE 112 0 min 0 W/m 12,4 C 14,5 C 6,1 km/h (2 Bft)
07/06/2012 04:40 14,6 C 88 % 1004,4 hPa 0,0 mm 4,7 km/h (1 Bft) E 90 0 min 0 W/m 12,6 C 14,6 C 9,4 km/h (2 Bft)
07/06/2012 04:50 14,6 C 88 % 1004,4 hPa 0,0 mm 1,1 km/h (1 Bft) SE 135 0 min 0 W/m 12,6 C 14,6 C 1,1 km/h (1 Bft)
07/06/2012 05:00 14,6 C 88 % 1004,2 hPa 0,0 mm 0,7 km/h (0 Bft) E-SE 112 0 min 0 W/m 12,6 C 14,6 C 3,2 km/h (1 Bft)
07/06/2012 05:10 14,6 C 88 % 1004,0 hPa 0,0 mm 1,1 km/h (1 Bft) E 90 0 min 0 W/m 12,6 C 14,6 C 1,4 km/h (1 Bft)
07/06/2012 05:20 14,6 C 88 % 1003,8 hPa 0,0 mm 5,4 km/h (2 Bft) E 90 0 min 0 W/m 12,6 C 14,6 C 5,4 km/h (2 Bft)
07/06/2012 05:30 14,6 C 88 % 1003,7 hPa 0,0 mm 4,7 km/h (1 Bft) E-NE 67 0 min 0 W/m 12,6 C 14,6 C 7,2 km/h (2 Bft)
07/06/2012 05:40 14,6 C 88 % 1003,6 hPa 0,0 mm 1,4 km/h (1 Bft) S-SE 157 0 min 0 W/m 12,6 C 14,6 C 1,4 km/h (1 Bft)
07/06/2012 05:50 14,8 C 88 % 1003,4 hPa 0,0 mm 0,4 km/h (0 Bft) E-SE 112 0 min 0 W/m 12,8 C 14,8 C 3,6 km/h (1 Bft)
07/06/2012 06:00 14,9 C 87 % 1003,2 hPa 0,0 mm 1,8 km/h (1 Bft) N-NE 22 0 min 0 W/m 12,8 C 14,9 C 2,9 km/h (1 Bft)
07/06/2012 06:10 15,1 C 87 % 1003,0 hPa 0,0 mm 3,6 km/h (1 Bft) E 90 0 min 0 W/m 13,0 C 15,1 C 4,3 km/h (1 Bft)
07/06/2012 06:20 15,1 C 87 % 1002,8 hPa 0,0 mm 3,2 km/h (1 Bft) E-NE 67 0 min 0 W/m 13,0 C 15,1 C 3,2 km/h (1 Bft)
07/06/2012 06:30 15,1 C 87 % 1002,6 hPa 0,0 mm 3,2 km/h (1 Bft) E-SE 112 0 min 0 W/m 13,0 C 15,1 C 4,0 km/h (1 Bft)
07/06/2012 06:40 15,1 C 86 % 1002,3 hPa 0,0 mm 3,2 km/h (1 Bft) E 90 0 min 0 W/m 12,8 C 15,1 C 9,4 km/h (2 Bft)
07/06/2012 06:50 15,1 C 86 % 1002,1 hPa 0,0 mm 2,9 km/h (1 Bft) E-SE 112 0 min 0 W/m 12,8 C 15,1 C 7,6 km/h (2 Bft)
07/06/2012 07:00 15,2 C 86 % 1002,0 hPa 0,0 mm 1,1 km/h (1 Bft) SE 135 0 min 0 W/m 12,9 C 15,2 C 4,3 km/h (1 Bft)
07/06/2012 07:10 15,3 C 86 % 1001,9 hPa 0,0 mm 1,1 km/h (1 Bft) E-SE 112 0 min 0 W/m 13,0 C 15,3 C 3,6 km/h (1 Bft)
07/06/2012 07:20 15,5 C 87 % 1001,6 hPa 0,0 mm 1,1 km/h (1 Bft) E 90 0 min 0 W/m 13,3 C 15,5 C 1,1 km/h (1 Bft)
07/06/2012 07:30 15,8 C 86 % 1001,6 hPa 0,0 mm 2,9 km/h (1 Bft) E-SE 112 0 min 0 W/m 13,5 C 15,8 C 2,9 km/h (1 Bft)
07/06/2012 07:40 16,2 C 85 % 1001,5 hPa 0,0 mm 2,9 km/h (1 Bft) SE 135 0 min 0 W/m 13,7 C 16,2 C 9,0 km/h (2 Bft)
07/06/2012 07:50 16,6 C 85 % 1001,4 hPa 0,0 mm 2,9 km/h (1 Bft) SE 135 0 min 0 W/m 14,1 C 16,6 C 4,3 km/h (1 Bft)
07/06/2012 08:00 16,9 C 84 % 1001,3 hPa 0,0 mm 4,7 km/h (1 Bft) SE 135 0 min 0 W/m 14,2 C 16,9 C 6,5 km/h (2 Bft)
07/06/2012 08:10 17,4 C 83 % 1001,3 hPa 0,0 mm 1,1 km/h (1 Bft) E-SE 112 0 min 0 W/m 14,5 C 17,4 C 4,3 km/h (1 Bft)
07/06/2012 08:20 17,8 C 83 % 1001,2 hPa 0,0 mm 5,4 km/h (2 Bft) SE 135 0 min 0 W/m 14,9 C 17,8 C 7,6 km/h (2 Bft)
07/06/2012 08:30 18,6 C 81 % 1000,9 hPa 0,0 mm 8,3 km/h (2 Bft) E-SE 112 0 min 0 W/m 15,3 C 18,6 C 13,0 km/h (3 Bft)
07/06/2012 08:40 19,4 C 80 % 1000,8 hPa 0,0 mm 11,9 km/h (2 Bft) S-SE 157 0 min 0 W/m 15,9 C 19,4 C 16,9 km/h (3 Bft)
07/06/2012 08:50 19,9 C 77 % 1000,7 hPa 0,0 mm 9,4 km/h (2 Bft) S-SO 202 0 min 0 W/m 15,7 C 19,9 C 13,3 km/h (3 Bft)
07/06/2012 09:00 20,3 C 77 % 1000,7 hPa 0,0 mm 13,7 km/h (3 Bft) S-SO 202 0 min 0 W/m 16,1 C 20,3 C 24,5 km/h (4 Bft)
07/06/2012 09:10 20,7 C 76 % 1000,5 hPa 0,0 mm 12,2 km/h (2 Bft) S-SO 202 0 min 0 W/m 16,3 C 20,7 C 22,7 km/h (4 Bft)
07/06/2012 09:20 21,3 C 75 % 1000,5 hPa 0,0 mm 7,9 km/h (2 Bft) S 180 0 min 0 W/m 16,7 C 21,3 C 13,0 km/h (3 Bft)
07/06/2012 09:30 21,8 C 74 % 1000,5 hPa 0,0 mm 9,7 km/h (2 Bft) S 180 0 min 0 W/m 17,0 C 21,8 C 10,1 km/h (2 Bft)
07/06/2012 09:40 22,2 C 73 % 1000,5 hPa 0,0 mm 11,5 km/h (2 Bft) S-SE 157 0 min 0 W/m 17,1 C 22,2 C 17,6 km/h (3 Bft)
07/06/2012 09:50 22,4 C 71 % 1000,3 hPa 0,0 mm 18,0 km/h (3 Bft) S-SE 157 0 min 0 W/m 16,9 C 22,4 C 23,8 km/h (4 Bft)
07/06/2012 10:00 21,9 C 72 % 1000,3 hPa 0,0 mm 6,8 km/h (2 Bft) S-SO 202 0 min 0 W/m 16,6 C 21,9 C 21,6 km/h (4 Bft)
07/06/2012 10:10 21,8 C 73 % 1000,3 hPa 0,0 mm 9,4 km/h (2 Bft) SO 225 0 min 0 W/m 16,7 C 21,8 C 10,8 km/h (2 Bft)
07/06/2012 10:20 21,9 C 74 % 1000,0 hPa 0,0 mm 10,4 km/h (2 Bft) S-SE 157 0 min 0 W/m 17,0 C 21,9 C 19,8 km/h (3 Bft)
07/06/2012 10:30 22,3 C 72 % 1000,4 hPa 0,0 mm 6,8 km/h (2 Bft) SO 225 0 min 0 W/m 17,0 C 22,3 C 10,1 km/h (2 Bft)
07/06/2012 10:40 22,1 C 73 % 1000,3 hPa 0,0 mm 10,4 km/h (2 Bft) S 180 0 min 0 W/m 17,0 C 22,1 C 15,8 km/h (3 Bft)
07/06/2012 10:50 22,4 C 75 % 1000,4 hPa 0,0 mm 8,6 km/h (2 Bft) S-SO 202 0 min 0 W/m 17,7 C 22,4 C 19,1 km/h (3 Bft)
07/06/2012 11:00 23,2 C 73 % 1000,5 hPa 0,0 mm 10,1 km/h (2 Bft) S 180 0 min 0 W/m 18,1 C 23,2 C 15,8 km/h (3 Bft)
07/06/2012 11:10 23,5 C 70 % 1000,6 hPa 0,0 mm 14,8 km/h (3 Bft) S-SO 202 0 min 0 W/m 17,7 C 23,5 C 22,3 km/h (4 Bft)
07/06/2012 11:20 23,4 C 70 % 1000,7 hPa 0,0 mm 12,6 km/h (3 Bft) O-SO 247 0 min 0 W/m 17,6 C 23,4 C 20,5 km/h (4 Bft)
07/06/2012 11:30 23,1 C 71 % 1000,7 hPa 0,0 mm 9,0 km/h (2 Bft) O-SO 247 0 min 0 W/m 17,5 C 23,1 C 13,7 km/h (3 Bft)
07/06/2012 11:40 23,1 C 71 % 1000,7 hPa 0,0 mm 17,3 km/h (3 Bft) SO 225 0 min 0 W/m 17,5 C 23,1 C 24,1 km/h (4 Bft)
07/06/2012 11:50 23,2 C 71 % 1001,0 hPa 0,0 mm 10,1 km/h (2 Bft) SO 225 0 min 0 W/m 17,6 C 23,2 C 14,8 km/h (3 Bft)
07/06/2012 12:00 23,4 C 70 % 1001,3 hPa 0,0 mm 23,8 km/h (4 Bft) SO 225 0 min 0 W/m 17,6 C 23,4 C 27,7 km/h (5 Bft)
07/06/2012 12:10 22,9 C 71 % 1001,4 hPa 0,0 mm 10,8 km/h (2 Bft) O-SO 247 0 min 0 W/m 17,4 C 22,9 C 12,6 km/h (3 Bft)
07/06/2012 12:20 22,1 C 74 % 1001,8 hPa 0,0 mm 12,2 km/h (2 Bft) S 180 0 min 0 W/m 17,2 C 22,1 C 14,4 km/h (3 Bft)
07/06/2012 12:30 21,1 C 78 % 1001,9 hPa 0,1 mm 13,3 km/h (3 Bft) S-SO 202 0 min 0 W/m 17,1 C 21,1 C 13,3 km/h (3 Bft)
07/06/2012 12:40 21,3 C 79 % 1001,8 hPa 0,0 mm 13,3 km/h (3 Bft) SO 225 0 min 0 W/m 17,5 C 21,3 C 15,8 km/h (3 Bft)
07/06/2012 12:50 21,5 C 78 % 1002,0 hPa 0,0 mm 10,1 km/h (2 Bft) S-SO 202 0 min 0 W/m 17,5 C 21,5 C 10,1 km/h (2 Bft)
07/06/2012 13:00 22,1 C 77 % 1002,0 hPa 0,0 mm 9,0 km/h (2 Bft) S-SO 202 0 min 0 W/m 17,9 C 22,1 C 14,4 km/h (3 Bft)
07/06/2012 13:10 22,4 C 76 % 1001,6 hPa 0,0 mm 13,7 km/h (3 Bft) S-SO 202 0 min 0 W/m 18,0 C 22,4 C 23,4 km/h (4 Bft)
07/06/2012 13:20 22,6 C 75 % 1002,6 hPa 0,4 mm 10,8 km/h (2 Bft) SO 225 0 min 0 W/m 17,9 C 22,6 C 21,2 km/h (4 Bft)
07/06/2012 13:30 19,5 C 80 % 1002,6 hPa 2,2 mm 8,6 km/h (2 Bft) O-SO 247 0 min 0 W/m 16,0 C 19,5 C 10,8 km/h (2 Bft)
07/06/2012 13:40 18,4 C 88 % 1002,5 hPa 0,1 mm 6,5 km/h (2 Bft) SO 225 0 min 0 W/m 16,4 C 18,4 C 6,8 km/h (2 Bft)
07/06/2012 13:50 18,3 C 89 % 1002,7 hPa 0,0 mm 7,6 km/h (2 Bft) O-SO 247 0 min 0 W/m 16,5 C 18,3 C 7,6 km/h (2 Bft)
07/06/2012 14:00 18,9 C 91 % 1002,8 hPa 0,0 mm 5,8 km/h (2 Bft) S-SO 202 0 min 0 W/m 17,4 C 18,9 C 11,9 km/h (2 Bft)
07/06/2012 14:10 19,7 C 91 % 1002,7 hPa 0,0 mm 7,6 km/h (2 Bft) S-SE 157 0 min 0 W/m 18,2 C 19,7 C 12,6 km/h (3 Bft)
07/06/2012 14:20 20,2 C 87 % 1002,9 hPa 0,0 mm 7,2 km/h (2 Bft) SO 225 0 min 0 W/m 18,0 C 20,2 C 10,8 km/h (2 Bft)
07/06/2012 14:30 20,3 C 79 % 1003,0 hPa 0,0 mm 7,9 km/h (2 Bft) SO 225 0 min 0 W/m 16,5 C 20,3 C 10,1 km/h (2 Bft)
07/06/2012 14:40 20,8 C 77 % 1003,2 hPa 0,0 mm 10,1 km/h (2 Bft) S-SO 202 0 min 0 W/m 16,6 C 20,8 C 15,5 km/h (3 Bft)
07/06/2012 14:50 21,3 C 73 % 1003,1 hPa 0,0 mm 7,9 km/h (2 Bft) SO 225 0 min 0 W/m 16,3 C 21,3 C 11,9 km/h (2 Bft)
07/06/2012 15:00 21,5 C 69 % 1003,3 hPa 0,0 mm 11,9 km/h (2 Bft) SO 225 0 min 0 W/m 15,6 C 21,5 C 18,4 km/h (3 Bft)
07/06/2012 15:10 21,3 C 71 % 1003,3 hPa 0,0 mm 11,5 km/h (2 Bft) SO 225 0 min 0 W/m 15,8 C 21,3 C 20,5 km/h (4 Bft)
07/06/2012 15:20 21,4 C 70 % 1003,3 hPa 0,0 mm 11,2 km/h (2 Bft) S-SO 202 0 min 0 W/m 15,7 C 21,4 C 14,0 km/h (3 Bft)
07/06/2012 15:30 21,8 C 67 % 1003,4 hPa 0,0 mm 6,8 km/h (2 Bft) SO 225 0 min 0 W/m 15,4 C 21,8 C 14,0 km/h (3 Bft)
07/06/2012 15:40 21,8 C 69 % 1003,4 hPa 0,0 mm 11,9 km/h (2 Bft) SO 225 0 min 0 W/m 15,9 C 21,8 C 20,9 km/h (4 Bft)
07/06/2012 15:50 22,0 C 66 % 1003,5 hPa 0,0 mm 9,0 km/h (2 Bft) SO 225 0 min 0 W/m 15,3 C 22,0 C 14,4 km/h (3 Bft)
07/06/2012 16:00 21,9 C 65 % 1003,8 hPa 0,0 mm 11,5 km/h (2 Bft) O-SO 247 0 min 0 W/m 15,0 C 21,9 C 25,9 km/h (4 Bft)
07/06/2012 16:10 21,8 C 65 % 1003,9 hPa 0,0 mm 13,7 km/h (3 Bft) O-SO 247 0 min 0 W/m 14,9 C 21,8 C 17,6 km/h (3 Bft)
07/06/2012 16:20 21,9 C 63 % 1003,9 hPa 0,0 mm 15,5 km/h (3 Bft) O-SO 247 0 min 0 W/m 14,5 C 21,9 C 27,7 km/h (5 Bft)
07/06/2012 16:30 22,1 C 64 % 1004,0 hPa 0,0 mm 15,8 km/h (3 Bft) S 180 0 min 0 W/m 15,0 C 22,1 C 15,8 km/h (3 Bft)
07/06/2012 16:40 22,0 C 63 % 1004,2 hPa 0,0 mm 13,0 km/h (3 Bft) SO 225 0 min 0 W/m 14,6 C 22,0 C 19,8 km/h (3 Bft)
07/06/2012 16:50 22,2 C 65 % 1004,1 hPa 0,0 mm 13,3 km/h (3 Bft) SO 225 0 min 0 W/m 15,3 C 22,2 C 13,3 km/h (3 Bft)
07/06/2012 17:00 22,3 C 64 % 1004,1 hPa 0,0 mm 7,9 km/h (2 Bft) SO 225 0 min 0 W/m 15,2 C 22,3 C 8,6 km/h (2 Bft)
07/06/2012 17:10 21,9 C 63 % 1004,1 hPa 0,0 mm 6,8 km/h (2 Bft) SO 225 0 min 0 W/m 14,5 C 21,9 C 10,4 km/h (2 Bft)
07/06/2012 17:20 21,8 C 63 % 1004,3 hPa 0,0 mm 13,3 km/h (3 Bft) O-SO 247 0 min 0 W/m 14,4 C 21,8 C 24,8 km/h (4 Bft)
07/06/2012 17:30 21,6 C 62 % 1004,3 hPa 0,0 mm 9,7 km/h (2 Bft) O-SO 247 0 min 0 W/m 14,0 C 21,6 C 15,1 km/h (3 Bft)
07/06/2012 17:40 21,4 C 62 % 1004,4 hPa 0,0 mm 4,7 km/h (1 Bft) O-NO 292 0 min 0 W/m 13,8 C 21,4 C 12,2 km/h (2 Bft)
07/06/2012 17:50 21,6 C 57 % 1004,5 hPa 0,0 mm 6,8 km/h (2 Bft) O-SO 247 0 min 0 W/m 12,7 C 21,6 C 10,4 km/h (2 Bft)
07/06/2012 18:00 21,5 C 56 % 1004,7 hPa 0,0 mm 8,3 km/h (2 Bft) O-SO 247 0 min 0 W/m 12,3 C 21,5 C 8,3 km/h (2 Bft)
07/06/2012 18:10 21,3 C 57 % 1004,7 hPa 0,0 mm 9,0 km/h (2 Bft) S-SO 202 0 min 0 W/m 12,4 C 21,3 C 14,0 km/h (3 Bft)
07/06/2012 18:20 20,8 C 59 % 1004,8 hPa 0,0 mm 9,7 km/h (2 Bft) S-SO 202 0 min 0 W/m 12,5 C 20,8 C 20,5 km/h (4 Bft)
07/06/2012 18:30 20,3 C 60 % 1004,9 hPa 0,0 mm 11,9 km/h (2 Bft) SO 225 0 min 0 W/m 12,3 C 20,3 C 18,4 km/h (3 Bft)
07/06/2012 18:40 20,0 C 62 % 1005,1 hPa 0,0 mm 3,2 km/h (1 Bft) O 270 0 min 0 W/m 12,5 C 20,0 C 3,2 km/h (1 Bft)
07/06/2012 18:50 19,9 C 64 % 1005,0 hPa 0,0 mm 8,3 km/h (2 Bft) S-SO 202 0 min 0 W/m 12,9 C 19,9 C 12,6 km/h (3 Bft)
07/06/2012 19:00 19,8 C 63 % 1005,1 hPa 0,0 mm 6,5 km/h (2 Bft) SO 225 0 min 0 W/m 12,5 C 19,8 C 15,1 km/h (3 Bft)
07/06/2012 19:10 19,8 C 64 % 1005,0 hPa 0,0 mm 2,2 km/h (1 Bft) O-SO 247 0 min 0 W/m 12,8 C 19,8 C 6,1 km/h (2 Bft)
07/06/2012 19:20 20,2 C 64 % 1005,2 hPa 0,0 mm 13,3 km/h (3 Bft) SO 225 0 min 0 W/m 13,2 C 20,2 C 16,2 km/h (3 Bft)
07/06/2012 19:30 20,4 C 64 % 1005,3 hPa 0,0 mm 0,7 km/h (0 Bft) SO 225 0 min 0 W/m 13,4 C 20,4 C 0,7 km/h (0 Bft)
07/06/2012 19:40 20,4 C 62 % 1005,7 hPa 0,0 mm 7,6 km/h (2 Bft) S-SO 202 0 min 0 W/m 12,9 C 20,4 C 15,1 km/h (3 Bft)
07/06/2012 19:50 19,9 C 63 % 1006,0 hPa 0,0 mm 3,6 km/h (1 Bft) O 270 0 min 0 W/m 12,6 C 19,9 C 11,5 km/h (2 Bft)
07/06/2012 20:00 19,5 C 64 % 1006,1 hPa 0,0 mm 9,4 km/h (2 Bft) S-SO 202 0 min 0 W/m 12,5 C 19,5 C 14,0 km/h (3 Bft)
07/06/2012 20:10 19,1 C 64 % 1006,3 hPa 0,0 mm 2,5 km/h (1 Bft) SO 225 0 min 0 W/m 12,1 C 19,1 C 7,6 km/h (2 Bft)
07/06/2012 20:20 18,5 C 65 % 1006,3 hPa 0,0 mm 5,8 km/h (2 Bft) O-SO 247 0 min 0 W/m 11,8 C 18,5 C 10,8 km/h (2 Bft)
07/06/2012 20:30 18,0 C 67 % 1006,5 hPa 0,0 mm 5,4 km/h (2 Bft) SO 225 0 min 0 W/m 11,8 C 18,0 C 5,4 km/h (2 Bft)
07/06/2012 20:40 17,6 C 69 % 1006,7 hPa 0,0 mm 2,5 km/h (1 Bft) SO 225 0 min 0 W/m 11,8 C 17,6 C 7,6 km/h (2 Bft)
07/06/2012 20:50 17,4 C 69 % 1006,7 hPa 0,0 mm 6,5 km/h (2 Bft) S-SO 202 0 min 0 W/m 11,7 C 17,4 C 13,7 km/h (3 Bft)
07/06/2012 21:00 17,1 C 70 % 1006,6 hPa 0,0 mm 7,2 km/h (2 Bft) O-SO 247 0 min 0 W/m 11,6 C 17,1 C 14,0 km/h (3 Bft)
07/06/2012 21:10 16,9 C 70 % 1006,8 hPa 0,0 mm 3,2 km/h (1 Bft) SO 225 0 min 0 W/m 11,4 C 16,9 C 4,3 km/h (1 Bft)
07/06/2012 21:20 16,6 C 71 % 1007,1 hPa 0,0 mm 3,2 km/h (1 Bft) S-SE 157 0 min 0 W/m 11,3 C 16,6 C 7,6 km/h (2 Bft)
07/06/2012 21:30 16,5 C 71 % 1007,0 hPa 0,0 mm 1,4 km/h (1 Bft) S-SO 202 0 min 0 W/m 11,2 C 16,5 C 3,6 km/h (1 Bft)
07/06/2012 21:40 16,4 C 73 % 1006,8 hPa 0,0 mm 0,4 km/h (0 Bft) SO 225 0 min 0 W/m 11,5 C 16,4 C 3,2 km/h (1 Bft)
07/06/2012 21:50 16,3 C 73 % 1007,2 hPa 0,0 mm 1,8 km/h (1 Bft) SO 225 0 min 0 W/m 11,4 C 16,3 C 4,7 km/h (1 Bft)
07/06/2012 22:00 16,1 C 73 % 1007,4 hPa 0,0 mm 3,2 km/h (1 Bft) SO 225 0 min 0 W/m 11,3 C 16,1 C 4,7 km/h (1 Bft)
07/06/2012 22:10 16,0 C 74 % 1007,4 hPa 0,0 mm 3,6 km/h (1 Bft) SO 225 0 min 0 W/m 11,4 C 16,0 C 6,8 km/h (2 Bft)
07/06/2012 22:20 15,9 C 74 % 1007,1 hPa 0,0 mm 2,9 km/h (1 Bft) O-SO 247 0 min 0 W/m 11,3 C 15,9 C 4,0 km/h (1 Bft)
07/06/2012 22:30 15,8 C 75 % 1007,3 hPa 0,0 mm 1,8 km/h (1 Bft) SO 225 0 min 0 W/m 11,4 C 15,8 C 4,0 km/h (1 Bft)
07/06/2012 22:40 15,6 C 76 % 1007,4 hPa 0,0 mm 2,9 km/h (1 Bft) SO 225 0 min 0 W/m 11,4 C 15,6 C 9,0 km/h (2 Bft)
07/06/2012 22:50 15,4 C 77 % 1007,6 hPa 0,0 mm 1,8 km/h (1 Bft) S-SO 202 0 min 0 W/m 11,4 C 15,4 C 7,6 km/h (2 Bft)
07/06/2012 23:00 15,1 C 77 % 1007,8 hPa 0,0 mm 2,5 km/h (1 Bft) S-SO 202 0 min 0 W/m 11,1 C 15,1 C 4,3 km/h (1 Bft)
07/06/2012 23:10 14,9 C 78 % 1007,6 hPa 0,0 mm 0,7 km/h (0 Bft) S-SO 202 0 min 0 W/m 11,1 C 14,9 C 3,6 km/h (1 Bft)
07/06/2012 23:20 14,8 C 79 % 1007,8 hPa 0,0 mm 4,0 km/h (1 Bft) SO 225 0 min 0 W/m 11,2 C 14,8 C 4,0 km/h (1 Bft)
07/06/2012 23:30 14,6 C 81 % 1007,5 hPa 0,0 mm 1,4 km/h (1 Bft) SO 225 0 min 0 W/m 11,4 C 14,6 C 3,2 km/h (1 Bft)
07/06/2012 23:40 14,4 C 82 % 1007,8 hPa 0,0 mm 4,0 km/h (1 Bft) S-SO 202 0 min 0 W/m 11,4 C 14,4 C 8,3 km/h (2 Bft)
07/06/2012 23:50 14,3 C 83 % 1007,9 hPa 0,0 mm 7,2 km/h (2 Bft) S-SO 202 0 min 0 W/m 11,5 C 14,3 C 12,2 km/h (2 Bft)
_ Min-Heure 23:50 18:00 10:20 - 04:00 - - - - 23:00 23:50 04:00
Minimum _ 14,3 C 56 % 1000,0 hPa - 0,0 km/h (0 Bft) - - - - 11,1 C 14,3 C 0,0 km/h (0 Bft)
_ Max-Heure 11:10 14:10 00:10 13:30 12:00 - - 23:50 23:50 14:10 11:10 16:20
Maximum _ 23,5 C 91 % 1008,1 hPa 2,2 mm 23,8 km/h
SO (4 Bft)
- - 0 min 0 W/m 18,2 C 23,5 C 27,7 km/h
O-SO (5 Bft)
Moyenne _ 18,3 C 77 % 1004,2 hPa #2,8 mm 6,0 km/h (2 Bft) SO - #0 min. 0 W/m 14,0 C 18,3 C 9,7 km/h (2 Bft)
Saint Bonnet de Bellac- Haute Vienne - France